Regional Weather Roundup
Issued by NWS

Home | Current Version | Previous Version | Graphics & Text | Print | Product List | Glossary On
Versions: 1 2 3 4 5 6 7 8 9 10 11 12 13 14 15 16 17 18 19 20 21 22 23 24 25 26 27
000
ASUS45 KTFX 282110
RWRMT
MONTANA REGIONAL WEATHER ROUNDUP
NATIONAL WEATHER SERVICE GREAT FALLS MT
300 PM MDT SAT MAY 28 2016

NOTE: "FAIR" INDICATES FEW OR NO CLOUDS BELOW 12000 FEET WITH NO
SIGNIFICANT WEATHER AND/OR OBSTRUCTIONS TO VISIBILITY.

MTZ001>007-043-282200-
WEST OF THE DIVIDE

CITY           SKY/WX    TMP DP  RH WIND       PRES   REMARKS
KALISPELL      CLOUDY    62  29  28 SW10      30.00S
MISSOULA       CLOUDY    60  33  36 N6        30.05F
BUTTE          CLOUDY    57  28  33 W15G22    30.03S
MULLAN PASS    CLOUDY    40  28  62 VRB3      30.08R
ANACONDA         N/A     57  32  38 N7        30.02F
DEER LODGE       N/A     54  30  40 CALM      30.05S
EUREKA           N/A     57  30  35 SE5       30.00
HAMILTON         N/A     63  27  25 SE7       30.03F
LIBBY            N/A     57  32  38 S6        30.04S
$$

MTZ008-052>055-282200-
SOUTHWEST MONTANA

CITY           SKY/WX    TMP DP  RH WIND       PRES   REMARKS
BOZEMAN        CLOUDY    59  39  47 S8        30.02S
DILLON         CLOUDY    60  29  30 W8        30.00F
W YELLOWSTONE  CLOUDY    52  32  46 SW10G21   30.08S
ENNIS          PTSUNNY   54  37  54 S14G20    30.09R
$$

MTZ009-010-012-014-046-048-049-054-282200-
EAST SLOPES AND CENTRAL MONTANA

CITY           SKY/WX    TMP DP  RH WIND       PRES   REMARKS
CUT BANK       CLOUDY    56  28  34 W15       29.95S
GREAT FALLS    PTSUNNY   62  27  26 W20       29.98S
MALMSTROM AFB  MOSUNNY   59  26  28 W16G23    29.98S
HELENA         SUNNY     64  30  27 NW18G25   30.00F
CHOTEAU          N/A     57  27  30 NW9       29.99R
$$

MTZ011-013-016-021-045-047-050-051-282200-
NORTH CENTRAL MONTANA

CITY           SKY/WX    TMP DP  RH WIND       PRES   REMARKS
HAVRE          PTSUNNY   63  37  38 W14       29.92S
LEWISTOWN      CLOUDY    60  35  39 NW12G20   29.99R
N BAR RANCH    PTSUNNY   59  37  44 NW14G20   29.99S
CHINOOK          N/A     64  32  29 SW15G21   29.91F
$$

MTZ017>020-022>027-061-062-282200-
NORTHEAST MONTANA

CITY           SKY/WX    TMP DP  RH WIND       PRES   REMARKS
GLASGOW        MOSUNNY   64  48  56 NW12      29.90F
JORDAN           N/A     68  39  34 W15       29.92S
SIDNEY         CLOUDY    70  52  52 NW17      29.87R
WOLF POINT     PTSUNNY   68  48  48 NW14G23   29.90S
PLENTYWOOD       N/A     55  55 100 W6        29.89R
POPLAR           N/A     64  50  59 W15G24    29.90R
$$

MTZ028>42-056>058-282200-
SOUTHCENTRAL AND SOUTHEAST MONTANA

CITY           SKY/WX    TMP DP  RH WIND       PRES   REMARKS
BAKER          MOSUNNY   69  47  45 W20G26    29.92R
BILLINGS       MOSUNNY   65  36  34 NW5       29.97F
LIVINGSTON     LGT RAIN  51  43  74 SW25G31   30.02R
MILES CITY     PTSUNNY   71  41  33 NW14G21   29.92F
FORSYTH          N/A     66  36  32 W14       29.94S
$$

REGIONAL REPORTS...DAKOTAS

CITY           SKY/WX    TMP DP  RH WIND       PRES   REMARKS
WILLISTON      LGT RAIN  61  55  81 E8        29.87R
MINOT          CLOUDY    68  53  58 CALM      29.88S
DICKINSON      LGT RAIN  58  52  80 W3        29.88S
BEACH          PTSUNNY   66  46  48 W18       29.92R
CROSBY         PTSUNNY   59  59 100 E12       29.92R
WATFORD CITY     N/A     57  54  88 SE6       29.87F
BISMARCK       CLOUDY    66  57  72 E6        29.86F
GRAND FORKS    LGT RAIN  66  57  72 E16       29.81S
FARGO          CLOUDY    67  57  70 NE15      29.81R
BUFFALO SD       N/A     66  51  58 NE10      29.85R
RAPID CITY     CLOUDY    64  53  67 W7        29.94S
$$

REGIONAL REPORTS...WYOMING/IDAHO/WASHINGTON

CITY           SKY/WX    TMP DP  RH WIND       PRES   REMARKS
GILLETTE       MOSUNNY   66  45  46 N10       29.96S
SHERIDAN       CLOUDY    62  44  51 VRB5      29.99S
BUFFALO WY     PTSUNNY   62  46  55 N6        30.01S
CODY           SUNNY     61  43  51 NE8       29.98S
YELLOWSTONE LA   N/A     50  23  34 SW5       30.15R
IDAHO FALLS    MOSUNNY   64  26  23 S14G25    30.06F
SALMON         CLOUDY    63  37  39 N8        29.98F
BOISE          SUNNY     66  25  21 NW9       30.06F
SPOKANE        PTSUNNY   61  34  36 S14G20    30.05F
$$

REGIONAL REPORTS...ALBERTA

CITY           SKY/WX    TMP DP  RH WIND       PRES   REMARKS
EDMONTON       PTSUNNY   61  39  44 N3        29.85S
CALGARY        MOSUNNY   55  32  41 N3        29.88S
LETHBRIDGE     MOSUNNY   63  28  27 SW17G31   29.89S
MEDICINE HAT   PTSUNNY   61  41  48 NW7       29.88S
WATERTON GATE    N/A     55  34  44 SW20G30     N/A
CARDSTON         N/A     57  28  33 W15G23      N/A
MILK RIVER       N/A     61  34  36 W13G21      N/A
$$

REGIONAL REPORTS...SASKATCHEWAN

CITY           SKY/WX    TMP DP  RH WIND       PRES   REMARKS
SWIFT CURRENT  SUNNY     57  45  62 NW6G17    29.88S
REGINA         CLOUDY    61  50  67 SE10      29.89F
SASKATOON      PTSUNNY   66  46  48 SE14G21   29.87F
CYPRESS HILLS    N/A     54  34  47 W8          N/A
VAL MARIE        N/A     63  37  39 W15G23      N/A
ROCKGLEN         N/A     59  48  67 W12         N/A
ASSINIBOIA       N/A     57  43  58 N7          N/A
$$




USA.gov is the U.S. government's official web portal to all federal, state and local government web resources and services.